Satellite: NOAA-15
Catalog number: 25338
Epoch time: 09302.53608481
Element set: 134
Inclination: 098.5978 deg
RA of node: 288.8892 deg
Eccentricity: 0.0011095
Arg of perigee: 031.4440 deg
Mean anomaly: 328.7390 deg
Mean motion: 14.24789292 rev/day
Decay rate: -1.02e-06 rev/day^2
Epoch rev: 59590
Checksum: 329
Satellite: RESURS
Catalog number: 25394
Epoch time: 09302.69972124
Element set: 344
Inclination: 098.3300 deg
RA of node: 328.1295 deg
Eccentricity: 0.0001385
Arg of perigee: 140.1730 deg
Mean anomaly: 219.9551 deg
Mean motion: 14.24188922 rev/day
Decay rate: -4.6e-07 rev/day^2
Epoch rev: 58754
Checksum: 297
Satellite: FENGYUN1
Catalog number: 25730
Epoch time: 09302.80699483
Element set: 886
Inclination: 098.7657 deg
RA of node: 269.0080 deg
Eccentricity: 0.0020840
Arg of perigee: 192.8751 deg
Mean anomaly: 167.1890 deg
Mean motion: 14.08036851 rev/day
Decay rate: 1.005e-05 rev/day^2
Epoch rev: 53926
Checksum: 322
Satellite: OKEAN-0
Catalog number: 25860
Epoch time: 09302.75514565
Element set: 822
Inclination: 097.8040 deg
RA of node: 278.7104 deg
Eccentricity: 0.0001740
Arg of perigee: 082.6231 deg
Mean anomaly: 277.5175 deg
Mean motion: 14.73594516 rev/day
Decay rate: 8.3e-07 rev/day^2
Epoch rev: 55296
Checksum: 304
Satellite: NOAA-16
Catalog number: 26536
Epoch time: 09302.59369444
Element set: 614
Inclination: 099.1795 deg
RA of node: 309.5381 deg
Eccentricity: 0.0009728
Arg of perigee: 263.0677 deg
Mean anomaly: 096.9397 deg
Mean motion: 14.12535158 rev/day
Decay rate: -8.2e-07 rev/day^2
Epoch rev: 46927
Checksum: 352
Satellite: NOAA-17
Catalog number: 27453
Epoch time: 09302.54942749
Element set: 606
Inclination: 098.4672 deg
RA of node: 356.8771 deg
Eccentricity: 0.0012790
Arg of perigee: 092.5491 deg
Mean anomaly: 267.7167 deg
Mean motion: 14.24102766 rev/day
Decay rate: 1.77e-06 rev/day^2
Epoch rev: 38187
Checksum: 342
Satellite: NOAA-18
Catalog number: 28654
Epoch time: 09302.60966912
Element set: 94
Inclination: 098.9203 deg
RA of node: 244.8826 deg
Eccentricity: 0.0014229
Arg of perigee: 347.3387 deg
Mean anomaly: 012.7410 deg
Mean motion: 14.11299286 rev/day
Decay rate: 4.34e-06 rev/day^2
Epoch rev: 22891
Checksum: 319
Satellite: NOAA-19
Catalog number: 33591
Epoch time: 09302.54767637
Element set: 299
Inclination: 098.7601 deg
RA of node: 244.8931 deg
Eccentricity: 0.0013454
Arg of perigee: 220.2063 deg
Mean anomaly: 139.8109 deg
Mean motion: 14.10997265 rev/day
Decay rate: 3.30e-06 rev/day^2
Epoch rev: 3738
Checksum: 316
/EX
SB KEPS @ AMSAT $ORB09302.M
Orbital Elements 09302.MISC
HR AMSAT ORBITAL ELEMENTS FOR MANNED AND MISCELLANEOUS SATELLITES
FROM WA5QGD FORT WORTH,TX October 29, 2009
Send Subscribe/unsubscribe to KEPS at
http://www.amsat.org/mailman/listinfo/keps
BID: ORB09302.M
TO ALL RADIO AMATEURS BT
Satellite: HUBBLE
Catalog number: 20580
Epoch time: 09300.38005163
Element set: 468
Inclination: 028.4706 deg
RA of node: 319.5105 deg
Eccentricity: 0.0003535
Arg of perigee: 245.4323 deg
Mean anomaly: 114.6084 deg
Mean motion: 15.00845672 rev/day
Decay rate: 5.10e-06 rev/day^2
Epoch rev: 86973
Checksum: 271
Satellite: ISS
Catalog number: 25544
Epoch time: 09303.02141007
Element set: 880
Inclination: 051.6441 deg
RA of node: 334.3471 deg
Eccentricity: 0.0006265
Arg of perigee: 264.9592 deg
Mean anomaly: 189.0978 deg
Mean motion: 15.75618079 rev/day
Decay rate: 2.4258e-04 rev/day^2
Epoch rev: 62719
Checksum: 312
Satellite: CO-58
Catalog number: 28895
Epoch time: 09302.68397804
Element set: 429
Inclination: 098.0390 deg
RA of node: 189.3888 deg
Eccentricity: 0.0016958
Arg of perigee: 288.2346 deg
Mean anomaly: 071.7024 deg
Mean motion: 14.59808008 rev/day
Decay rate: 5.8e-07 rev/day^2
Epoch rev: 21335
Checksum: 357
Satellite: FALCON
Catalog number: 30776
Epoch time: 09301.52606936
Element set: 0701
Inclination: 035.4341 deg
RA of node: 010.3659 deg
Eccentricity: 0.0002151
Arg of perigee: 349.4098 deg
Mean anomaly: 010.6573 deg
Mean motion: 15.03347380 rev/day
Decay rate: 8.10e-06 rev/day^2
Epoch rev: 14517
Checksum: 263
Satellite: MAST
Catalog number: 31126
Epoch time: 09302.54719563
Element set: 718
Inclination: 097.9727 deg
RA of node: 351.0820 deg
Eccentricity: 0.0093998
Arg of perigee: 222.3412 deg
Mean anomaly: 137.0506 deg
Mean motion: 14.53525534 rev/day
Decay rate: -1.0e-08 rev/day^2
Epoch rev: 13455
Checksum: 287
Satellite: CAPE1
Catalog number: 31130
Epoch time: 09301.68475686
Element set: 729
Inclination: 097.9741 deg
RA of node: 348.1513 deg
Eccentricity: 0.0101768
Arg of perigee: 231.6114 deg
Mean anomaly: 127.5891 deg
Mean motion: 14.52097964 rev/day
Decay rate: 7.0e-08 rev/day^2
Epoch rev: 13406
Checksum: 305
Satellite: COMPASS
Catalog number: 32787
Epoch time: 09301.21083674
Element set: 0505
Inclination: 097.9274 deg
RA of node: 003.8051 deg
Eccentricity: 0.0015128
Arg of perigee: 323.6532 deg
Mean anomaly: 036.3646 deg
Mean motion: 14.81680089 rev/day
Decay rate: 5.22e-06 rev/day^2
Epoch rev: 08114
Checksum: 282
Satellite: AAUSAT2
Catalog number: 32788
Epoch time: 09301.70775043
Element set: 0499
Inclination: 097.9291 deg
RA of node: 004.3814 deg
Eccentricity: 0.0014668
Arg of perigee: 323.8046 deg
Mean anomaly: 036.2170 deg
Mean motion: 14.81806598 rev/day
Decay rate: 2.10e-06 rev/day^2
Epoch rev: 08122
Checksum: 300
Satellite: DO-64
Catalog number: 32789
Epoch time: 09301.72900771
Element set: 0517
Inclination: 097.9327 deg
RA of node: 004.6530 deg
Eccentricity: 0.0015100
Arg of perigee: 321.0501 deg
Mean anomaly: 038.9617 deg
Mean motion: 14.81831026 rev/day
Decay rate: 4.13e-06 rev/day^2
Epoch rev: 08122
Checksum: 271
Satellite: CO-66
Catalog number: 32791
Epoch time: 09302.75530484
Element set: 494
Inclination: 097.9295 deg
RA of node: 005.3652 deg
Eccentricity: 0.0015557
Arg of perigee: 316.6459 deg
Mean anomaly: 043.3524 deg
Mean motion: 14.81499947 rev/day
Decay rate: 4.88e-06 rev/day^2
Epoch rev: 8133
Checksum: 342
Satellite: RS-30
Catalog number: 32953
Epoch time: 09302.60732950
Element set: 440
Inclination: 082.5039 deg
RA of node: 173.0457 deg
Eccentricity: 0.0018087
Arg of perigee: 246.4027 deg
Mean anomaly: 113.5157 deg
Mean motion: 12.43003250 rev/day
Decay rate: 1.0e-07 rev/day^2
Epoch rev: 6509
Checksum: 257
Satellite: TACSAT-3
Catalog number: 35001
Epoch time: 09301.94262443
Element set: 0141
Inclination: 040.4547 deg
RA of node: 160.4990 deg
Eccentricity: 0.0022564
Arg of perigee: 073.6527 deg
Mean anomaly: 286.6760 deg
Mean motion: 15.39430178 rev/day
Decay rate: 4.149e-05 rev/day^2
Epoch rev: 02496
Checksum: 291
Satellite: PHARMSAT
Catalog number: 35002
Epoch time: 09302.77045651
Element set: 126
Inclination: 040.4679 deg
RA of node: 154.6024 deg
Eccentricity: 0.0025643
Arg of perigee: 084.9575 deg
Mean anomaly: 275.4165 deg
Mean motion: 15.40169408 rev/day
Decay rate: 3.889e-05 rev/day^2
Epoch rev: 2509
Checksum: 298
Satellite: HAWKSAT1
Catalog number: 35003
Epoch time: 09302.70584545
Element set: 133
Inclination: 040.4601 deg
RA of node: 153.9756 deg
Eccentricity: 0.0025274
Arg of perigee: 088.7292 deg
Mean anomaly: 271.6361 deg
Mean motion: 15.41116316 rev/day
Decay rate: 7.153e-05 rev/day^2
Epoch rev: 2510
Checksum: 265
Satellite: CP6
Catalog number: 35004
Epoch time: 09301.01761656
Element set: 0128
Inclination: 040.4592 deg
RA of node: 164.0654 deg
Eccentricity: 0.0025269
Arg of perigee: 073.8562 deg
Mean anomaly: 286.5030 deg
Mean motion: 15.41216964 rev/day
Decay rate: 9.239e-05 rev/day^2
Epoch rev: 02483
Checksum: 290
Satellite: AEROCUB3
Catalog number: 35005
Epoch time: 09301.94524888
Element set: 0131
Inclination: 040.4745 deg
RA of node: 158.9660 deg
Eccentricity: 0.0024501
Arg of perigee: 080.0053 deg
Mean anomaly: 280.3498 deg
Mean motion: 15.40996674 rev/day
Decay rate: 8.367e-05 rev/day^2
Epoch rev: 02497
Checksum: 308
Satellite: DRAGNSAT
Catalog number: 35690
Epoch time: 09302.52466149
Element set: 88
Inclination: 051.6418 deg
RA of node: 331.1149 deg
Eccentricity: 0.0006132
Arg of perigee: 057.9384 deg
Mean anomaly: 302.2219 deg
Mean motion: 15.85404673 rev/day
Decay rate: 4.7279e-04 rev/day^2
Epoch rev: 1441
Checksum: 293
Satellite: POLLUX
Catalog number: 35693
Epoch time: 09302.56192016
Element set: 91
Inclination: 051.6411 deg
RA of node: 331.3748 deg
Eccentricity: 0.0005113
Arg of perigee: 023.9182 deg
Mean anomaly: 336.1939 deg
Mean motion: 15.84474357 rev/day
Decay rate: 4.2693e-04 rev/day^2
Epoch rev: 1438
Checksum: 291
Satellite: CASTOR
Catalog number: 35694
Epoch time: 09301.92262822
Element set: 0086
Inclination: 051.6431 deg
RA of node: 335.3803 deg
Eccentricity: 0.0004745
Arg of perigee: 021.4335 deg
Mean anomaly: 338.6862 deg
Mean motion: 15.82239583 rev/day
Decay rate: 2.1513e-04 rev/day^2
Epoch rev: 01427
Checksum: 285
Satellite: METEOR-M
Catalog number: 35865
Epoch time: 09301.82245358
Element set: 40
Inclination: 098.7936 deg
RA of node: 351.8743 deg
Eccentricity: 0.0001958
Arg of perigee: 334.6312 deg
Mean anomaly: 025.4730 deg
Mean motion: 14.21827271 rev/day
Decay rate: 1.76e-06 rev/day^2
Epoch rev: 584
Checksum: 296
Satellite: STERKH-2
Catalog number: 35866
Epoch time: 09301.80888730
Element set: 42
Inclination: 098.7947 deg
RA of node: 351.8992 deg
Eccentricity: 0.0002698
Arg of perigee: 326.0971 deg
Mean anomaly: 034.0033 deg
Mean motion: 14.22298067 rev/day
Decay rate: 1.78e-06 rev/day^2
Epoch rev: 584
Checksum: 322
Satellite: FREGAT-I
Catalog number: 35867
Epoch time: 09302.58823812
Element set: 52
Inclination: 097.3674 deg
RA of node: 351.8742 deg
Eccentricity: 0.0011213
Arg of perigee: 135.7595 deg
Mean anomaly: 224.4467 deg
Mean motion: 15.22744716 rev/day
Decay rate: 2.267e-05 rev/day^2
Epoch rev: 637
Checksum: 306
/EX
More information about the Keps
mailing list